This is the latest recevied weather packets stored in our database for station/object LU3HGB-WX. If no packets are shown the sender has not sent any weather packets the latest 10 day(s).
| Time | Temp. | Humidity | Pressure | Rain* | Wind** | Luminosity | Snow |
|---|---|---|---|---|---|---|---|
| 1788103359 | 20.56° C | 23% | 1014 hPa | 0 mm | - | 855 W/m² | - |
| 1788103059 | 20° C | 24% | 1014 hPa | 0 mm | - | 845 W/m² | - |
| 1788102760 | 20° C | 21% | 1014 hPa | 0 mm | - | 838 W/m² | - |
| 1788102460 | 20° C | 23% | 1014 hPa | 0 mm | - | 826 W/m² | - |
| 1788102160 | 20° C | 21% | 1014 hPa | 0 mm | - | 814 W/m² | - |
| 1788101860 | 20° C | 22% | 1014 hPa | 0 mm | - | 812 W/m² | - |
| 1788101560 | 20° C | 22% | 1014 hPa | 0 mm | - | 801 W/m² | - |
| 1788101259 | 20° C | 21% | 1014 hPa | 0 mm | - | 785 W/m² | - |
| 1788100959 | 19.44° C | 23% | 1014 hPa | 0 mm | - | 775 W/m² | - |
| 1788100660 | 18.89° C | 23% | 1014 hPa | 0 mm | - | 764 W/m² | - |
| 1788100359 | 18.89° C | 22% | 1014 hPa | 0 mm | - | 750 W/m² | - |
| 1788100059 | 18.33° C | 21% | 1014 hPa | 0 mm | - | 737 W/m² | - |
| 1788099759 | 18.33° C | 21% | 1014 hPa | 0 mm | - | 723 W/m² | - |
| 1788099460 | 17.78° C | 20% | 1014 hPa | 0 mm | - | 706 W/m² | - |
| 1788099160 | 17.78° C | 19% | 1014 hPa | 0 mm | - | 695 W/m² | - |
| 1788098859 | 17.78° C | 23% | 1014 hPa | 0 mm | - | 678 W/m² | - |
| 1788098560 | 17.22° C | 23% | 1014 hPa | 0 mm | - | 660 W/m² | - |
| 1788098259 | 17.22° C | 20% | 1014 hPa | 0 mm | - | 649 W/m² | - |
| 1788097959 | 16.67° C | 26% | 1014 hPa | 0 mm | - | 629 W/m² | - |
| 1788097659 | 16.67° C | 28% | 1014 hPa | 0 mm | - | 610 W/m² | - |
| 1788097374 | 16.11° C | 28% | 1014 hPa | 0 mm | - | 595 W/m² | - |
| 1788097059 | 16.11° C | 29% | 1015 hPa | 0 mm | - | 577 W/m² | - |
| 1788096760 | 16.11° C | 34% | 1014 hPa | 0 mm | - | 558 W/m² | - |
| 1788096459 | 15.56° C | 35% | 1014 hPa | 0 mm | - | 541 W/m² | - |
| 1788096159 | 15° C | 33% | 1014 hPa | 0 mm | - | 523 W/m² | - |
* Rain latest hour (hover to see other rain measurements)
** Current wind speed in m/s (hover to see current wind gust speed)